| time (UTC) | temp C | wind direction | speed KPH | gust KPH | rain 1hr cm | rain 24hr cm | rain mn cm | humidity % | barometer mb |
| 20260507134822 | 13 | 169 | 0.0 | 0.0 | 0.00 | 0.00 | 0.00 | 63 | 1014.2 |
| 20260507134805 | 12 | 49 | 0.0 | 0.0 | 0.00 | 0.00 | 0.00 | 61 | 1014.2 |
| 20260507133818 | 12 | 39 | 0.0 | 0.0 | 0.00 | 0.00 | 0.00 | 64 | 1014.2 |
| 20260507133318 | 12 | 40 | 0.0 | 0.0 | 0.00 | 0.00 | 0.00 | 67 | 1014.1 |
| 20260507132817 | 12 | 40 | 0.0 | 0.0 | 0.00 | 0.00 | 0.00 | 67 | 1014.1 |
| 20260507132317 | 11 | 40 | 0.0 | 0.0 | 0.00 | 0.00 | 0.00 | 70 | 1014.1 |
| 20260507132042 | 11 | 40 | 0.0 | 0.0 | 0.00 | 0.00 | 0.00 | 73 | 1014.1 |
| 20260507131317 | 10 | 40 | 0.0 | 0.0 | 0.00 | 0.00 | 0.00 | 77 | 1014.2 |
| 20260507130811 | 9 | 40 | 0.0 | 0.0 | 0.00 | 0.00 | 0.00 | 82 | 1014.2 |
| 20260507130311 | 8 | 36 | 0.0 | 0.0 | 0.00 | 0.00 | 0.00 | 88 | 1014.1 |
| 20260507125809 | 8 | 35 | 0.0 | 0.0 | 0.00 | 0.00 | 0.00 | 90 | 1014.1 |
| 20260507125531 | 8 | 35 | 0.0 | 0.0 | 0.00 | 0.00 | 0.00 | 92 | 1014.0 |
| 20260507124807 | 7 | 35 | 0.0 | 0.0 | 0.00 | 0.00 | 0.00 | 93 | 1014.0 |
| 20260507124305 | 7 | 35 | 0.0 | 0.0 | 0.00 | 0.00 | 0.00 | 93 | 1014.0 |
| 20260507123806 | 7 | 35 | 0.0 | 0.0 | 0.00 | 0.00 | 0.00 | 93 | 1013.9 |
| 20260507123303 | 6 | 35 | 0.0 | 0.0 | 0.00 | 0.00 | 0.00 | 93 | 1013.9 |
| 20260507122803 | 6 | 35 | 0.0 | 0.0 | 0.00 | 0.00 | 0.00 | 93 | 1013.8 |
| 20260507122306 | 6 | 35 | 0.0 | 0.0 | 0.00 | 0.00 | 0.00 | 93 | 1013.8 |
| 20260507121802 | 6 | 35 | 0.0 | 0.0 | 0.00 | 0.00 | 0.00 | 93 | 1013.7 |
| 20260507121302 | 6 | 35 | 0.0 | 0.0 | 0.00 | 0.00 | 0.00 | 93 | 1013.6 |
| 20260507120802 | 6 | 35 | 0.0 | 0.0 | 0.00 | 0.00 | 0.00 | 93 | 1013.6 |
| 20260507120303 | 6 | 35 | 0.0 | 0.0 | 0.00 | 0.00 | 0.00 | 93 | 1013.6 |
| 20260507120023 | 5 | 35 | 0.0 | 0.0 | 0.00 | 0.00 | 0.00 | 93 | 1013.6 |
| 20260507115307 | 5 | 35 | 0.0 | 0.0 | 0.00 | 0.00 | 0.00 | 93 | 1013.6 |
| 20260507114802 | 5 | 35 | 0.0 | 0.0 | 0.00 | 0.00 | 0.00 | 92 | 1013.5 |
| 20260507114520 | 5 | 35 | 0.0 | 0.0 | 0.00 | 0.00 | 0.00 | 91 | 1013.5 |
| 20260507113802 | 5 | 35 | 0.0 | 0.0 | 0.00 | 0.00 | 0.00 | 91 | 1013.5 |
| 20260507113302 | 5 | 35 | 0.0 | 0.0 | 0.00 | 0.00 | 0.00 | 91 | 1013.4 |
| 20260507113034 | 5 | 35 | 0.0 | 0.0 | 0.00 | 0.00 | 0.00 | 91 | 1013.5 |
| 20260507112306 | 5 | 35 | 0.0 | 0.0 | 0.00 | 0.00 | 0.00 | 90 | 1013.5 |
| 20260507111802 | 5 | 35 | 0.0 | 0.0 | 0.00 | 0.00 | 0.00 | 90 | 1013.5 |
| 20260507111303 | 5 | 35 | 0.0 | 0.0 | 0.00 | 0.00 | 0.00 | 90 | 1013.4 |
| 20260507110802 | 5 | 35 | 0.0 | 0.0 | 0.00 | 0.00 | 0.00 | 90 | 1013.4 |
| 20260507110303 | 6 | 35 | 0.0 | 0.0 | 0.00 | 0.00 | 0.00 | 90 | 1013.3 |
| 20260507110240 | 6 | 35 | 0.0 | 0.0 | 0.00 | 0.00 | 0.00 | 90 | 1013.3 |
| 20260507105306 | 6 | 35 | 0.0 | 0.0 | 0.00 | 0.00 | 0.00 | 90 | 1013.3 |
| 20260507105026 | 6 | 35 | 0.0 | 0.0 | 0.00 | 0.00 | 0.00 | 90 | 1013.4 |
| 20260507104259 | 6 | 35 | 0.0 | 0.0 | 0.00 | 0.00 | 0.00 | 90 | 1013.5 |
| 20260507103759 | 6 | 35 | 0.0 | 0.0 | 0.00 | 0.00 | 0.00 | 90 | 1013.5 |
| 20260507103259 | 6 | 35 | 0.0 | 0.0 | 0.00 | 0.00 | 0.00 | 89 | 1013.4 |
| 20260507102800 | 6 | 35 | 0.0 | 0.0 | 0.00 | 0.00 | 0.00 | 89 | 1013.4 |
| 20260507102300 | 6 | 35 | 0.0 | 0.0 | 0.00 | 0.00 | 0.00 | 89 | 1013.5 |
| 20260507101759 | 6 | 35 | 0.0 | 0.0 | 0.00 | 0.00 | 0.00 | 89 | 1013.4 |
| 20260507101259 | 6 | 35 | 0.0 | 0.0 | 0.00 | 0.00 | 0.00 | 89 | 1013.4 |
| 20260507101017 | 7 | 35 | 0.0 | 0.0 | 0.00 | 0.00 | 0.00 | 89 | 1013.4 |
| 20260507100259 | 7 | 35 | 0.0 | 0.0 | 0.00 | 0.00 | 0.00 | 89 | 1013.4 |
| 20260507100243 | 7 | 35 | 0.0 | 0.0 | 0.00 | 0.00 | 0.00 | 89 | 1013.3 |
| 20260507095257 | 7 | 35 | 0.0 | 0.0 | 0.00 | 0.00 | 0.00 | 90 | 1013.3 |
| 20260507094756 | 7 | 35 | 0.0 | 0.0 | 0.00 | 0.00 | 0.00 | 90 | 1013.2 |
| 20260507094255 | 7 | 35 | 0.0 | 0.0 | 0.00 | 0.00 | 0.00 | 90 | 1013.3 |
| 20260507093755 | 7 | 35 | 0.0 | 0.0 | 0.00 | 0.00 | 0.00 | 90 | 1013.3 |
| 20260507093254 | 7 | 35 | 0.0 | 0.0 | 0.00 | 0.00 | 0.00 | 90 | 1013.2 |
| 20260507092752 | 7 | 35 | 0.0 | 0.0 | 0.00 | 0.00 | 0.00 | 91 | 1013.0 |
| 20260507092251 | 7 | 35 | 0.0 | 0.0 | 0.00 | 0.00 | 0.00 | 91 | 1013.0 |
| 20260507091748 | 7 | 35 | 0.0 | 0.0 | 0.00 | 0.00 | 0.00 | 91 | 1013.0 |
| 20260507091246 | 7 | 35 | 0.0 | 0.0 | 0.00 | 0.00 | 0.00 | 91 | 1013.0 |
| 20260507090744 | 7 | 35 | 0.0 | 0.0 | 0.00 | 0.00 | 0.00 | 91 | 1013.2 |
| 20260507090242 | 7 | 35 | 0.0 | 0.0 | 0.00 | 0.00 | 0.00 | 92 | 1013.2 |
| 20260507090227 | 7 | 35 | 0.0 | 0.0 | 0.00 | 0.00 | 0.00 | 92 | 1013.3 |
| 20260507085239 | 7 | 35 | 0.0 | 0.0 | 0.00 | 0.00 | 0.00 | 92 | 1013.3 |
| 20260507084737 | 7 | 35 | 0.0 | 0.0 | 0.00 | 0.00 | 0.00 | 92 | 1013.3 |
| 20260507084235 | 6 | 35 | 0.0 | 0.0 | 0.00 | 0.00 | 0.00 | 93 | 1013.1 |
| 20260507083736 | 6 | 35 | 0.0 | 0.0 | 0.00 | 0.00 | 0.00 | 93 | 1013.4 |
| 20260507083235 | 6 | 35 | 0.0 | 0.0 | 0.00 | 0.00 | 0.00 | 93 | 1013.4 |
| 20260507082734 | 6 | 35 | 0.0 | 0.0 | 0.00 | 0.00 | 0.00 | 93 | 1013.4 |
| 20260507082232 | 6 | 35 | 0.0 | 0.0 | 0.00 | 0.00 | 0.00 | 93 | 1013.6 |
| 20260507081729 | 6 | 35 | 0.0 | 0.0 | 0.00 | 0.00 | 0.00 | 93 | 1013.7 |
| 20260507081223 | 6 | 35 | 0.0 | 0.0 | 0.00 | 0.00 | 0.00 | 92 | 1013.6 |
| 20260507080717 | 6 | 35 | 0.0 | 0.0 | 0.00 | 0.00 | 0.00 | 92 | 1013.7 |
| 20260507080211 | 6 | 35 | 0.0 | 0.0 | 0.00 | 0.00 | 0.00 | 92 | 1013.7 |
| 20260507075711 | 6 | 35 | 0.0 | 0.0 | 0.00 | 0.00 | 0.00 | 92 | 1013.7 |
| 20260507075214 | 6 | 35 | 0.0 | 0.0 | 0.00 | 0.00 | 0.00 | 92 | 1013.7 |
| 20260507074711 | 6 | 35 | 0.0 | 0.0 | 0.00 | 0.00 | 0.00 | 92 | 1013.9 |
| 20260507074210 | 6 | 35 | 0.0 | 0.0 | 0.00 | 0.00 | 0.00 | 91 | 1013.9 |
| 20260507073712 | 6 | 35 | 0.0 | 0.0 | 0.00 | 0.00 | 0.00 | 91 | 1013.8 |
| 20260507073210 | 6 | 35 | 0.0 | 0.0 | 0.00 | 0.00 | 0.00 | 92 | 1013.6 |
| 20260507072710 | 6 | 35 | 0.0 | 0.0 | 0.00 | 0.00 | 0.00 | 92 | 1014.0 |
| 20260507072211 | 6 | 35 | 0.0 | 0.0 | 0.00 | 0.00 | 0.00 | 92 | 1014.0 |
| 20260507071931 | 6 | 35 | 0.0 | 0.0 | 0.00 | 0.00 | 0.00 | 91 | 1014.0 |
| 20260507071207 | 6 | 35 | 0.0 | 0.0 | 0.00 | 0.00 | 0.00 | 91 | 1013.9 |
| 20260507070708 | 6 | 35 | 0.0 | 0.0 | 0.00 | 0.00 | 0.00 | 91 | 1013.9 |
| 20260507070205 | 6 | 35 | 0.0 | 0.0 | 0.00 | 0.00 | 0.00 | 90 | 1013.9 |
| 20260507065705 | 6 | 35 | 0.0 | 0.0 | 0.00 | 0.00 | 0.00 | 90 | 1013.9 |
| 20260507065429 | 6 | 35 | 0.0 | 0.0 | 0.00 | 0.00 | 0.00 | 90 | 1014.0 |
| 20260507064702 | 6 | 35 | 0.0 | 0.0 | 0.00 | 0.00 | 0.00 | 90 | 1014.0 |
| 20260507064202 | 6 | 35 | 0.0 | 0.0 | 0.00 | 0.00 | 0.00 | 89 | 1014.0 |
| 20260507063701 | 6 | 35 | 0.0 | 0.0 | 0.00 | 0.00 | 0.00 | 89 | 1014.0 |
| 20260507063202 | 6 | 35 | 0.0 | 0.0 | 0.00 | 0.00 | 0.00 | 89 | 1014.0 |
| 20260507062658 | 6 | 35 | 0.0 | 0.0 | 0.00 | 0.00 | 0.00 | 88 | 1013.9 |
| 20260507062153 | 6 | 35 | 0.0 | 0.0 | 0.00 | 0.00 | 0.00 | 88 | 1013.9 |
| 20260507061651 | 6 | 35 | 0.0 | 0.0 | 0.00 | 0.00 | 0.00 | 88 | 1014.0 |
| 20260507061150 | 6 | 35 | 0.0 | 0.0 | 0.00 | 0.00 | 0.00 | 88 | 1014.2 |
| 20260507060912 | 6 | 35 | 0.0 | 0.0 | 0.00 | 0.00 | 0.00 | 88 | 1014.0 |
| 20260507060146 | 6 | 35 | 0.0 | 0.0 | 0.00 | 0.00 | 0.00 | 88 | 1014.0 |
| 20260507055643 | 6 | 35 | 0.0 | 0.0 | 0.00 | 0.00 | 0.00 | 87 | 1013.8 |
| 20260507055141 | 6 | 35 | 0.0 | 0.0 | 0.00 | 0.00 | 0.00 | 87 | 1013.8 |
| 20260507054641 | 6 | 35 | 0.0 | 0.0 | 0.00 | 0.00 | 0.00 | 87 | 1013.8 |
| 20260507054625 | 6 | 35 | 0.0 | 0.0 | 0.00 | 0.00 | 0.00 | 86 | 1013.8 |
| 20260507053640 | 7 | 35 | 0.0 | 0.0 | 0.00 | 0.00 | 0.00 | 86 | 1013.9 |
| 20260507053139 | 7 | 35 | 0.0 | 0.0 | 0.00 | 0.00 | 0.00 | 86 | 1013.8 |
| 20260507052636 | 7 | 35 | 0.0 | 0.0 | 0.00 | 0.00 | 0.00 | 86 | 1013.7 |
| 20260507052136 | 7 | 35 | 0.0 | 0.0 | 0.00 | 0.00 | 0.00 | 86 | 1013.6 |
| 20260507051637 | 7 | 35 | 0.0 | 0.0 | 0.00 | 0.00 | 0.00 | 85 | 1013.6 |
| 20260507051137 | 7 | 35 | 0.0 | 0.0 | 0.00 | 0.00 | 0.00 | 85 | 1013.7 |
| 20260507050631 | 7 | 35 | 0.0 | 0.0 | 0.00 | 0.00 | 0.00 | 84 | 1013.6 |
| 20260507050130 | 7 | 35 | 0.0 | 0.0 | 0.00 | 0.00 | 0.00 | 85 | 1013.7 |
| 20260507045631 | 7 | 35 | 0.0 | 0.0 | 0.00 | 0.00 | 0.00 | 84 | 1013.9 |
| 20260507045613 | 7 | 35 | 0.0 | 0.0 | 0.00 | 0.00 | 0.00 | 84 | 1013.9 |
| 20260507044631 | 7 | 35 | 0.0 | 0.0 | 0.00 | 0.00 | 0.00 | 84 | 1013.8 |
| 20260507044129 | 7 | 35 | 0.0 | 0.0 | 0.00 | 0.00 | 0.00 | 83 | 1013.7 |
| 20260507043630 | 7 | 35 | 0.0 | 0.0 | 0.00 | 0.00 | 0.00 | 83 | 1013.6 |
| 20260507043131 | 7 | 35 | 0.0 | 0.0 | 0.00 | 0.00 | 0.00 | 82 | 1013.6 |
| 20260507042630 | 7 | 35 | 0.0 | 0.0 | 0.00 | 0.00 | 0.00 | 82 | 1013.6 |
| 20260507042128 | 8 | 35 | 0.0 | 0.0 | 0.00 | 0.00 | 0.00 | 81 | 1013.7 |
| 20260507041626 | 8 | 35 | 0.0 | 0.0 | 0.00 | 0.00 | 0.00 | 80 | 1013.7 |
| 20260507041126 | 8 | 35 | 0.0 | 0.0 | 0.00 | 0.00 | 0.00 | 80 | 1013.7 |
| 20260507040626 | 8 | 35 | 0.0 | 0.0 | 0.00 | 0.00 | 0.00 | 79 | 1013.7 |
| 20260507040125 | 8 | 35 | 0.0 | 0.0 | 0.00 | 0.00 | 0.00 | 79 | 1013.8 |
| 20260507035625 | 8 | 35 | 0.0 | 0.0 | 0.00 | 0.00 | 0.00 | 78 | 1013.9 |
| 20260507035125 | 8 | 35 | 0.0 | 0.0 | 0.00 | 0.00 | 0.00 | 78 | 1013.8 |
| 20260507034852 | 8 | 35 | 0.0 | 0.0 | 0.00 | 0.00 | 0.00 | 77 | 1013.9 |
| 20260507034121 | 8 | 35 | 0.0 | 0.0 | 0.00 | 0.00 | 0.00 | 77 | 1013.8 |
| 20260507033618 | 9 | 35 | 0.0 | 0.0 | 0.00 | 0.00 | 0.00 | 76 | 1013.7 |
| 20260507033335 | 9 | 35 | 0.0 | 0.0 | 0.00 | 0.00 | 0.00 | 76 | 1013.7 |
| 20260507032615 | 9 | 35 | 0.0 | 0.0 | 0.00 | 0.00 | 0.00 | 76 | 1013.5 |
| 20260507032337 | 9 | 35 | 0.0 | 0.0 | 0.00 | 0.00 | 0.00 | 75 | 1013.3 |
| 20260507031621 | 9 | 35 | 0.0 | 0.0 | 0.00 | 0.00 | 0.00 | 74 | 1013.4 |
| 20260507031121 | 9 | 35 | 0.0 | 0.0 | 0.00 | 0.00 | 0.00 | 73 | 1013.4 |
| 20260507030618 | 10 | 35 | 0.0 | 0.0 | 0.00 | 0.00 | 0.00 | 73 | 1013.2 |
| 20260507030116 | 10 | 35 | 0.0 | 0.0 | 0.00 | 0.00 | 0.00 | 73 | 1013.2 |
| 20260507025613 | 10 | 35 | 0.0 | 0.0 | 0.00 | 0.00 | 0.00 | 72 | 1013.1 |
| 20260507025111 | 10 | 35 | 0.0 | 0.0 | 0.00 | 0.00 | 0.00 | 71 | 1013.1 |
| 20260507024611 | 10 | 35 | 0.0 | 0.0 | 0.00 | 0.00 | 0.00 | 70 | 1013.1 |
| 20260507024110 | 10 | 35 | 0.0 | 0.0 | 0.00 | 0.00 | 0.00 | 69 | 1013.1 |
| 20260507023610 | 10 | 35 | 0.0 | 0.0 | 0.00 | 0.00 | 0.00 | 68 | 1013.1 |
| 20260507023110 | 10 | 35 | 0.0 | 0.0 | 0.00 | 0.00 | 0.00 | 67 | 1013.0 |
| 20260507022610 | 11 | 35 | 0.0 | 0.0 | 0.00 | 0.00 | 0.00 | 67 | 1012.9 |
| 20260507022110 | 11 | 35 | 0.0 | 0.0 | 0.00 | 0.00 | 0.00 | 65 | 1013.0 |
| 20260507021608 | 11 | 35 | 0.0 | 0.0 | 0.00 | 0.00 | 0.00 | 65 | 1012.9 |
| 20260507021108 | 11 | 35 | 0.0 | 0.0 | 0.00 | 0.00 | 0.00 | 64 | 1012.9 |
| 20260507020607 | 11 | 35 | 0.0 | 0.0 | 0.00 | 0.00 | 0.00 | 63 | 1012.9 |
| 20260507020108 | 12 | 35 | 0.0 | 0.0 | 0.00 | 0.00 | 0.00 | 63 | 1012.8 |
| 20260507015608 | 12 | 35 | 0.0 | 0.0 | 0.00 | 0.00 | 0.00 | 62 | 1012.7 |
| 20260507015108 | 12 | 35 | 0.0 | 0.0 | 0.00 | 0.00 | 0.00 | 60 | 1012.7 |
| 20260507014609 | 12 | 35 | 0.0 | 0.0 | 0.00 | 0.00 | 0.00 | 58 | 1012.6 |
| 20260507014103 | 13 | 35 | 0.0 | 0.0 | 0.00 | 0.00 | 0.00 | 57 | 1012.4 |
| 20260507013604 | 13 | 35 | 0.0 | 0.0 | 0.00 | 0.00 | 0.00 | 55 | 1012.4 |
| 20260507013332 | 13 | 35 | 0.0 | 0.0 | 0.00 | 0.00 | 0.00 | 55 | 1012.3 |
| 20260507012605 | 13 | 35 | 0.0 | 0.0 | 0.00 | 0.00 | 0.00 | 53 | 1012.2 |
| 20260507012105 | 14 | 35 | 0.0 | 0.0 | 0.00 | 0.00 | 0.00 | 52 | 1012.2 |
| 20260507011604 | 14 | 35 | 0.0 | 0.0 | 0.00 | 0.00 | 0.00 | 50 | 1012.1 |
| 20260507011104 | 14 | 35 | 0.0 | 0.0 | 0.00 | 0.00 | 0.00 | 49 | 1012.1 |
| 20260507010604 | 15 | 35 | 0.0 | 0.0 | 0.00 | 0.00 | 0.00 | 48 | 1012.0 |
| 20260507010104 | 15 | 35 | 0.0 | 0.0 | 0.00 | 0.00 | 0.00 | 48 | 1012.0 |
| 20260507010047 | 15 | 35 | 0.0 | 0.0 | 0.00 | 0.00 | 0.00 | 47 | 1011.9 |
| 20260507005104 | 15 | 35 | 0.0 | 0.0 | 0.00 | 0.00 | 0.00 | 46 | 1011.9 |
| 20260507004607 | 15 | 35 | 0.0 | 0.0 | 0.00 | 0.00 | 0.00 | 46 | 1011.9 |
| 20260507004103 | 15 | 35 | 0.0 | 0.0 | 0.00 | 0.00 | 0.00 | 45 | 1011.9 |
| 20260507003604 | 15 | 35 | 0.0 | 0.0 | 0.00 | 0.00 | 0.00 | 45 | 1011.8 |
| 20260507003104 | 16 | 35 | 0.0 | 0.0 | 0.00 | 0.00 | 0.00 | 45 | 1011.8 |
| 20260507002604 | 16 | 35 | 0.0 | 0.0 | 0.00 | 0.00 | 0.00 | 45 | 1011.8 |
| 20260507002103 | 16 | 36 | 0.0 | 0.0 | 0.00 | 0.00 | 0.00 | 45 | 1011.8 |
| 20260507001602 | 16 | 36 | 0.0 | 0.0 | 0.00 | 0.00 | 0.00 | 45 | 1011.8 |
| 20260507001058 | 16 | 36 | 0.0 | 1.6 | 0.00 | 0.00 | 0.00 | 44 | 1011.7 |
| 20260507000758 | 16 | 40 | 0.0 | 8.0 | 0.00 | 0.00 | 0.00 | 43 | 1011.7 |
| 20260507000751 | 16 | 36 | 0.0 | 8.0 | 0.00 | 0.00 | 0.00 | 43 | 1011.7 |
| 20260506235741 | 16 | 40 | 0.0 | 6.4 | 0.00 | 0.00 | 0.00 | 43 | 1011.6 |
| 20260506235731 | 16 | 40 | 0.0 | 0.0 | 0.00 | 0.00 | 0.00 | 42 | 1011.6 |
| 20260506234534 | 16 | 36 | 0.0 | 6.4 | 0.00 | 0.00 | 0.00 | 42 | 1011.5 |
| 20260506234301 | 16 | 45 | 1.6 | 14.5 | 0.00 | 0.00 | 0.00 | 43 | 1011.4 |
| 20260506233754 | 16 | 71 | 0.0 | 14.5 | 0.00 | 0.00 | 0.00 | 42 | 1011.5 |
| 20260506233032 | 16 | 71 | 0.0 | 1.6 | 0.00 | 0.00 | 0.00 | 43 | 1011.4 |
| 20260506232752 | 16 | 5 | 0.0 | 1.6 | 0.00 | 0.00 | 0.00 | 44 | 1011.3 |
| 20260506232033 | 16 | 0 | 0.0 | 0.0 | 0.00 | 0.00 | 0.00 | 45 | 1011.3 |
| 20260506232011 | 16 | 21 | 0.0 | 9.7 | 0.00 | 0.00 | 0.00 | 45 | 1011.3 |
| 20260506231247 | 16 | 76 | 0.0 | 9.7 | 0.00 | 0.00 | 0.00 | 43 | 1011.2 |
| 20260506230530 | 16 | 77 | 0.0 | 6.4 | 0.00 | 0.00 | 0.00 | 45 | 1011.2 |
| 20260506230031 | 16 | 67 | 0.0 | 6.4 | 0.00 | 0.00 | 0.00 | 45 | 1011.2 |
| 20260506225530 | 16 | 338 | 0.0 | 3.2 | 0.00 | 0.00 | 0.00 | 45 | 1011.2 |
| 20260506225030 | 16 | 333 | 0.0 | 3.2 | 0.00 | 0.00 | 0.00 | 46 | 1011.1 |
| 20260506224530 | 16 | 32 | 0.0 | 1.6 | 0.00 | 0.00 | 0.00 | 45 | 1011.0 |
| 20260506224030 | 16 | 32 | 0.0 | 8.0 | 0.00 | 0.00 | 0.00 | 45 | 1011.0 |
| 20260506223534 | 16 | 34 | 0.0 | 8.0 | 0.00 | 0.00 | 0.00 | 45 | 1011.0 |
| 20260506223249 | 16 | 344 | 1.6 | 9.7 | 0.00 | 0.00 | 0.00 | 45 | 1010.9 |
| 20260506222524 | 16 | 51 | 1.6 | 9.7 | 0.00 | 0.00 | 0.00 | 44 | 1010.8 |
| 20260506222018 | 16 | 340 | 0.0 | 12.9 | 0.00 | 0.00 | 0.00 | 44 | 1010.8 |
| 20260506221734 | 16 | 30 | 1.6 | 12.9 | 0.00 | 0.00 | 0.00 | 44 | 1010.8 |
| 20260506221005 | 17 | 61 | 1.6 | 8.0 | 0.00 | 0.00 | 0.00 | 42 | 1010.8 |
| 20260506220506 | 17 | 67 | 0.0 | 8.0 | 0.00 | 0.00 | 0.00 | 45 | 1010.7 |
| 20260506220006 | 17 | 32 | 0.0 | 11.3 | 0.00 | 0.00 | 0.00 | 43 | 1010.8 |
| 20260506215508 | 17 | 41 | 0.0 | 11.3 | 0.00 | 0.00 | 0.00 | 43 | 1010.9 |
| 20260506215005 | 17 | 79 | 0.0 | 8.0 | 0.00 | 0.00 | 0.00 | 47 | 1010.9 |
| 20260506214732 | 17 | 48 | 0.0 | 9.7 | 0.00 | 0.00 | 0.00 | 43 | 1011.0 |
| 20260506214007 | 17 | 55 | 0.0 | 9.7 | 0.00 | 0.00 | 0.00 | 42 | 1011.0 |
| 20260506213729 | 17 | 28 | 0.0 | 14.5 | 0.00 | 0.00 | 0.00 | 44 | 1011.1 |
| 20260506213006 | 17 | 57 | 0.0 | 14.5 | 0.00 | 0.00 | 0.00 | 44 | 1011.1 |
| 20260506212505 | 17 | 69 | 1.6 | 14.5 | 0.00 | 0.00 | 0.00 | 44 | 1011.1 |
| 20260506212227 | 17 | 34 | 1.6 | 14.5 | 0.00 | 0.00 | 0.00 | 44 | 1011.1 |
| 20260506211505 | 17 | 69 | 0.0 | 9.7 | 0.00 | 0.00 | 0.00 | 44 | 1011.3 |
| 20260506211006 | 17 | 84 | 0.0 | 12.9 | 0.00 | 0.00 | 0.00 | 46 | 1011.3 |
| 20260506210722 | 17 | 332 | 0.0 | 12.9 | 0.00 | 0.00 | 0.00 | 45 | 1011.3 |
| 20260506210005 | 17 | 333 | 1.6 | 9.7 | 0.00 | 0.00 | 0.00 | 41 | 1011.3 |
| 20260506205505 | 17 | 331 | 1.6 | 19.3 | 0.00 | 0.00 | 0.00 | 41 | 1011.4 |
| 20260506205004 | 17 | 335 | 1.6 | 19.3 | 0.00 | 0.00 | 0.00 | 42 | 1011.5 |
| 20260506204505 | 16 | 78 | 0.0 | 6.4 | 0.00 | 0.00 | 0.00 | 44 | 1011.5 |
| 20260506203959 | 17 | 43 | 0.0 | 8.0 | 0.00 | 0.00 | 0.00 | 42 | 1011.6 |
| 20260506203453 | 17 | 31 | 0.0 | 8.0 | 0.00 | 0.00 | 0.00 | 44 | 1011.5 |
| 20260506202948 | 17 | 64 | 1.6 | 9.7 | 0.00 | 0.00 | 0.00 | 45 | 1011.5 |
| 20260506202448 | 17 | 57 | 1.6 | 9.7 | 0.00 | 0.00 | 0.00 | 44 | 1011.6 |
| 20260506201947 | 16 | 40 | 0.0 | 4.8 | 0.00 | 0.00 | 0.00 | 46 | 1011.7 |
| 20260506201445 | 16 | 34 | 0.0 | 12.9 | 0.00 | 0.00 | 0.00 | 45 | 1011.7 |
| 20260506200942 | 17 | 17 | 0.0 | 12.9 | 0.00 | 0.00 | 0.00 | 46 | 1011.6 |
| 20260506200441 | 17 | 74 | 0.0 | 8.0 | 0.00 | 0.00 | 0.00 | 48 | 1011.5 |
| 20260506195939 | 16 | 327 | 0.0 | 11.3 | 0.00 | 0.00 | 0.00 | 44 | 1011.6 |
| 20260506195437 | 17 | 75 | 0.0 | 11.3 | 0.00 | 0.00 | 0.00 | 45 | 1011.8 |
| 20260506195154 | 17 | 30 | 0.0 | 4.8 | 0.00 | 0.00 | 0.00 | 45 | 1011.8 |
| 20260506194433 | 17 | 52 | 1.6 | 14.5 | 0.00 | 0.00 | 0.00 | 48 | 1011.8 |
| 20260506193933 | 17 | 48 | 1.6 | 14.5 | 0.00 | 0.00 | 0.00 | 45 | 1011.9 |
| 20260506193433 | 17 | 62 | 1.6 | 11.3 | 0.00 | 0.00 | 0.00 | 48 | 1012.1 |
| 20260506192934 | 17 | 46 | 1.6 | 8.0 | 0.00 | 0.00 | 0.00 | 47 | 1012.2 |
| 20260506192432 | 17 | 26 | 0.0 | 12.9 | 0.00 | 0.00 | 0.00 | 49 | 1012.2 |
| 20260506191933 | 16 | 43 | 0.0 | 12.9 | 0.00 | 0.00 | 0.00 | 50 | 1012.3 |
| 20260506191432 | 17 | 43 | 0.0 | 14.5 | 0.00 | 0.00 | 0.00 | 46 | 1012.2 |
| 20260506190934 | 17 | 70 | 1.6 | 14.5 | 0.00 | 0.00 | 0.00 | 46 | 1012.2 |
| 20260506190432 | 16 | 51 | 1.6 | 9.7 | 0.00 | 0.00 | 0.00 | 47 | 1012.2 |
| 20260506185933 | 16 | 56 | 0.0 | 9.7 | 0.00 | 0.00 | 0.00 | 49 | 1012.3 |
| 20260506185433 | 16 | 67 | 1.6 | 6.4 | 0.00 | 0.00 | 0.00 | 46 | 1012.4 |
| 20260506184932 | 16 | 355 | 1.6 | 8.0 | 0.00 | 0.00 | 0.00 | 46 | 1012.4 |
| 20260506184423 | 16 | 38 | 0.0 | 11.3 | 0.00 | 0.00 | 0.00 | 47 | 1012.6 |
| 20260506183918 | 16 | 61 | 0.0 | 11.3 | 0.00 | 0.00 | 0.00 | 49 | 1012.6 |
| 20260506183415 | 16 | 61 | 1.6 | 11.3 | 0.00 | 0.00 | 0.00 | 47 | 1012.6 |
| 20260506182908 | 16 | 52 | 1.6 | 11.3 | 0.00 | 0.00 | 0.00 | 50 | 1012.7 |
| 20260506182408 | 16 | 37 | 1.6 | 9.7 | 0.00 | 0.00 | 0.00 | 47 | 1012.7 |
| 20260506181908 | 16 | 70 | 1.6 | 16.1 | 0.00 | 0.00 | 0.00 | 48 | 1012.9 |
| 20260506181406 | 16 | 55 | 1.6 | 16.1 | 0.00 | 0.00 | 0.00 | 45 | 1013.0 |
| 20260506180905 | 16 | 100 | 0.0 | 12.9 | 0.00 | 0.00 | 0.00 | 47 | 1013.0 |
| 20260506180405 | 16 | 36 | 1.6 | 12.9 | 0.00 | 0.00 | 0.00 | 51 | 1013.1 |
| 20260506175905 | 16 | 36 | 1.6 | 12.9 | 0.00 | 0.00 | 0.00 | 47 | 1013.2 |
| 20260506175405 | 16 | 47 | 1.6 | 17.7 | 0.00 | 0.00 | 0.00 | 48 | 1013.1 |
| 20260506174905 | 16 | 44 | 0.0 | 17.7 | 0.00 | 0.00 | 0.00 | 46 | 1013.1 |
| 20260506174405 | 16 | 74 | 0.0 | 8.0 | 0.00 | 0.00 | 0.00 | 47 | 1013.1 |
| 20260506173906 | 16 | 67 | 0.0 | 8.0 | 0.00 | 0.00 | 0.00 | 46 | 1013.2 |
| 20260506173405 | 16 | 76 | 0.0 | 9.7 | 0.00 | 0.00 | 0.00 | 49 | 1013.2 |
| 20260506173133 | 15 | 65 | 0.0 | 9.7 | 0.00 | 0.00 | 0.00 | 46 | 1013.2 |
| 20260506172404 | 15 | 0 | 0.0 | 11.3 | 0.00 | 0.00 | 0.00 | 49 | 1013.3 |
| 20260506171905 | 15 | 26 | 0.0 | 11.3 | 0.00 | 0.00 | 0.00 | 48 | 1013.5 |
| 20260506171405 | 15 | 28 | 0.0 | 11.3 | 0.00 | 0.00 | 0.00 | 49 | 1013.6 |
| 20260506170905 | 15 | 9 | 1.6 | 14.5 | 0.00 | 0.00 | 0.00 | 49 | 1013.6 |
| 20260506170405 | 15 | 65 | 1.6 | 14.5 | 0.00 | 0.00 | 0.00 | 51 | 1013.7 |
| 20260506165905 | 15 | 36 | 0.0 | 9.7 | 0.00 | 0.00 | 0.00 | 51 | 1013.6 |
| 20260506165404 | 15 | 45 | 0.0 | 11.3 | 0.00 | 0.00 | 0.00 | 50 | 1013.6 |
| 20260506164905 | 15 | 12 | 1.6 | 11.3 | 0.00 | 0.00 | 0.00 | 52 | 1013.6 |
| 20260506164405 | 15 | 22 | 0.0 | 11.3 | 0.00 | 0.00 | 0.00 | 51 | 1013.6 |
| 20260506163905 | 15 | 77 | 0.0 | 6.4 | 0.00 | 0.00 | 0.00 | 52 | 1013.6 |
| 20260506163404 | 14 | 14 | 1.6 | 14.5 | 0.00 | 0.00 | 0.00 | 52 | 1013.6 |
| 20260506162903 | 14 | 342 | 1.6 | 14.5 | 0.00 | 0.00 | 0.00 | 50 | 1013.7 |
| 20260506162401 | 14 | 22 | 0.0 | 17.7 | 0.00 | 0.00 | 0.00 | 52 | 1013.7 |
| 20260506161902 | 14 | 69 | 0.0 | 17.7 | 0.00 | 0.00 | 0.00 | 52 | 1013.4 |
| 20260506161402 | 14 | 67 | 0.0 | 8.0 | 0.00 | 0.00 | 0.00 | 51 | 1013.3 |
| 20260506160902 | 14 | 336 | 1.6 | 14.5 | 0.00 | 0.00 | 0.00 | 52 | 1013.2 |
| 20260506160400 | 14 | 64 | 1.6 | 17.7 | 0.00 | 0.00 | 0.00 | 51 | 1013.3 |
| 20260506160345 | 14 | 53 | 1.6 | 17.7 | 0.00 | 0.00 | 0.00 | 52 | 1013.3 |
| 20260506155401 | 14 | 42 | 1.6 | 12.9 | 0.00 | 0.00 | 0.00 | 55 | 1013.3 |
| 20260506155120 | 13 | 307 | 1.6 | 12.9 | 0.00 | 0.00 | 0.00 | 53 | 1013.1 |
| 20260506154400 | 13 | 77 | 0.0 | 12.9 | 0.00 | 0.00 | 0.00 | 53 | 1013.0 |
| 20260506153900 | 13 | 23 | 1.6 | 12.9 | 0.00 | 0.00 | 0.00 | 55 | 1013.1 |
| 20260506153622 | 13 | 345 | 0.0 | 12.9 | 0.00 | 0.00 | 0.00 | 54 | 1013.0 |
| 20260506153108 | 13 | 55 | 0.0 | 12.9 | 0.00 | 0.00 | 0.00 | 57 | 1012.8 |
| 20260506152836 | 13 | 64 | 1.6 | 12.9 | 0.00 | 0.00 | 0.00 | 56 | 1012.4 |
| 20260506152100 | 13 | 65 | 1.6 | 14.5 | 0.00 | 0.00 | 0.00 | 58 | 1012.3 |
| 20260506151342 | 13 | 36 | 0.0 | 14.5 | 0.00 | 0.00 | 0.00 | 59 | 1012.3 |
| 20260506150841 | 13 | 61 | 0.0 | 8.0 | 0.00 | 0.00 | 0.00 | 62 | 1012.3 |
| 20260506150342 | 12 | 59 | 0.0 | 8.0 | 0.00 | 0.00 | 0.00 | 60 | 1012.3 |
| 20260506145842 | 12 | 64 | 0.0 | 9.7 | 0.00 | 0.00 | 0.00 | 60 | 1012.2 |
| 20260506145340 | 12 | 67 | 1.6 | 9.7 | 0.00 | 0.00 | 0.00 | 62 | 1012.1 |
| 20260506144840 | 12 | 14 | 1.6 | 12.9 | 0.00 | 0.00 | 0.00 | 61 | 1012.0 |
| 20260506144340 | 11 | 56 | 3.2 | 16.1 | 0.00 | 0.00 | 0.00 | 62 | 1012.0 |
| 20260506143840 | 11 | 61 | 1.6 | 16.1 | 0.00 | 0.00 | 0.00 | 62 | 1012.1 |
| 20260506143339 | 11 | 40 | 1.6 | 16.1 | 0.00 | 0.00 | 0.00 | 66 | 1012.2 |
| 20260506142840 | 11 | 26 | 0.0 | 8.0 | 0.00 | 0.00 | 0.00 | 68 | 1012.6 |
| 20260506142341 | 11 | 36 | 0.0 | 8.0 | 0.00 | 0.00 | 0.00 | 69 | 1012.8 |
| 20260506141839 | 11 | 61 | 1.6 | 14.5 | 0.00 | 0.00 | 0.00 | 69 | 1012.4 |
| 20260506141340 | 11 | 35 | 1.6 | 14.5 | 0.00 | 0.00 | 0.00 | 71 | 1012.4 |
| 20260506140839 | 11 | 53 | 1.6 | 16.1 | 0.00 | 0.00 | 0.00 | 71 | 1012.3 |
| 20260506140339 | 10 | 50 | 1.6 | 16.1 | 0.00 | 0.00 | 0.00 | 72 | 1012.0 |
| 20260506135840 | 10 | 0 | 0.0 | 6.4 | 0.00 | 0.00 | 0.00 | 73 | 1012.0 |
| 20260506135558 | 10 | 22 | 0.0 | 6.4 | 0.00 | 0.00 | 0.00 | 74 | 1012.2 |